Angel Fire, NM

4:09 PM MDT on August 18, 2019 (GMT -0600)
Angel Fire

Weather History for KAXX - May, 2019

Change the Weather History Date:

Saturday, May 25, 2019

  Actual Average (WUND) Record (WUND)
Temperature  
Mean Temperature 45 °F -  
Max Temperature 68 °F - - (-1)
Min Temperature 22 °F - - (-1)
Degree Days  
Heating Degree Days 20    
Moisture  
Dew Point 22 °F    
Average Humidity 48    
Maximum Humidity 89    
Minimum Humidity 15    
Precipitation  
Precipitation 0.00 in - - ()
Sea Level Pressure  
Sea Level Pressure 30.17 in    
Wind  
Wind Speed 5 mph (WSW)    
Max Wind Speed 22 mph    
Max Gust Speed 36 mph    
Visibility 10 miles    
Events      
Averages and records for this station are not official NWS values.
T = Trace of Precipitation, MM = Missing Value Source: NWS Daily Summary

Daily Weather History Graph

Daily Weather History Graph

Search for Another Location

Airport or City:

Astronomy

May. 25, 2019 Rise Set
Actual Time 5:47 AM MDT 8:08 PM MDT
Civil Twilight 5:18 AM MDT 8:38 PM MDT
Nautical Twilight 4:42 AM MDT 9:14 PM MDT
Astronomical Twilight 4:02 AM MDT 9:54 PM MDT
Moon 1:12 AM MDT (5/25) 11:47 AM MDT (5/25)
Length of Visible Light 15h 19m
Length of Day
14h 20m
Waning Gibbous, 59% of the Moon is Illuminated
May 25
Waning Gibbous
May 26
Last Quarter
Jun 3
New
Jun 10
First Quarter
Jun 17
Full

Hourly Weather History & Observations

Time (MDT) Temp. Windchill Dew Point Humidity Pressure Visibility Wind Dir Wind Speed Gust Speed Precip Events Conditions
12:15 AM 30.2 °F - 25.7 °F 83% 30.18 in 10.0 mi Calm Calm - N/A   Unknown
12:35 AM 30.6 °F 25.8 °F 24.6 °F 79% 30.18 in 10.0 mi SSW 4.6 mph - N/A   Unknown
12:55 AM 29.1 °F - 24.1 °F 81% 30.17 in 10.0 mi Calm Calm - N/A   Unknown
1:15 AM 29.8 °F - 25.5 °F 84% 30.16 in 10.0 mi Calm Calm - N/A   Unknown
1:35 AM 29.7 °F - 23.9 °F 79% 30.17 in 10.0 mi Calm Calm - N/A   Unknown
1:55 AM 27.5 °F - 23.2 °F 84% 30.17 in 10.0 mi Calm Calm - N/A   Unknown
2:15 AM 27.7 °F - 23.0 °F 83% 30.17 in 10.0 mi Calm Calm - N/A   Unknown
2:35 AM 27.5 °F - 24.6 °F 89% 30.17 in 10.0 mi Calm Calm - N/A   Unknown
2:55 AM 27.3 °F - 22.5 °F 82% 30.18 in 10.0 mi Calm Calm - N/A   Unknown
3:15 AM 26.1 °F - 22.1 °F 85% 30.18 in 10.0 mi Calm Calm - N/A   Unknown
3:35 AM 25.9 °F - 21.7 °F 84% 30.18 in 10.0 mi Calm Calm - N/A   Unknown
3:55 AM 24.4 °F - 21.6 °F 89% 30.18 in 10.0 mi Calm Calm - N/A   Unknown
4:15 AM 23.9 °F 18.0 °F 21.2 °F 89% 30.19 in 10.0 mi SSE 4.6 mph - N/A   Unknown
4:35 AM 24.1 °F - 21.2 °F 89% 30.19 in 10.0 mi Calm Calm - N/A   Unknown
4:55 AM 24.1 °F - 21.2 °F 89% 30.20 in 10.0 mi Calm Calm - N/A   Unknown
5:15 AM 23.9 °F - 20.3 °F 86% 30.20 in 10.0 mi Calm Calm - N/A   Unknown
5:35 AM 23.5 °F - 20.3 °F 87% 30.20 in 10.0 mi Calm Calm - N/A   Unknown
5:55 AM 23.7 °F - 19.9 °F 85% 30.21 in 10.0 mi Calm Calm - N/A   Unknown
6:15 AM 22.3 °F - 19.4 °F 89% 30.21 in 10.0 mi Calm Calm - N/A   Unknown
6:35 AM 25.3 °F 21.1 °F 21.9 °F 87% 30.21 in 10.0 mi South 3.5 mph - N/A   Unknown
6:55 AM 28.4 °F - 23.7 °F 83% 30.22 in 10.0 mi Calm Calm - N/A   Unknown
7:15 AM 30.9 °F - 25.0 °F 79% 30.22 in 10.0 mi Calm Calm - N/A   Unknown
7:35 AM 33.3 °F - 25.2 °F 72% 30.22 in 10.0 mi Calm Calm - N/A   Unknown
7:55 AM 36.5 °F - 25.9 °F 65% 30.22 in 10.0 mi Calm Calm - N/A   Unknown
8:15 AM 39.0 °F - 26.6 °F 61% 30.22 in 10.0 mi Calm Calm - N/A   Unknown
8:35 AM 41.9 °F - 27.0 °F 55% 30.22 in 10.0 mi Calm Calm - N/A   Unknown
8:55 AM 44.4 °F - 25.5 °F 48% 30.22 in 10.0 mi Calm Calm - N/A   Unknown
9:15 AM 47.5 °F - 26.4 °F 44% 30.22 in 10.0 mi Calm Calm - N/A   Unknown
9:35 AM 50.4 °F - 26.8 °F 40% 30.20 in 10.0 mi North 3.5 mph - N/A   Unknown
9:55 AM 54.9 °F - 25.0 °F 32% 30.20 in 10.0 mi Calm Calm - N/A   Unknown
10:15 AM 57.6 °F - 25.5 °F 29% 30.19 in 10.0 mi Calm Calm - N/A   Unknown
10:35 AM 60.8 °F - 19.9 °F 21% 30.18 in 10.0 mi SSW 5.8 mph - N/A   Unknown
10:55 AM 61.7 °F - 21.7 °F 22% 30.18 in 10.0 mi WSW 12.7 mph 19.6 mph N/A   Unknown
11:15 AM 61.2 °F - 23.2 °F 23% 30.18 in 10.0 mi West 16.1 mph 24.2 mph N/A   Unknown
11:35 AM 61.2 °F - 23.5 °F 24% 30.19 in 10.0 mi West 16.1 mph 23.0 mph N/A   Unknown
11:55 AM 61.0 °F - 24.3 °F 25% 30.18 in 10.0 mi West 19.6 mph - N/A   Unknown
12:15 PM 61.3 °F - 24.3 °F 24% 30.18 in 10.0 mi West 17.3 mph - N/A   Unknown
12:35 PM 61.3 °F - 24.1 °F 24% 30.17 in 10.0 mi WNW 18.4 mph 25.3 mph N/A   Unknown
12:55 PM 61.0 °F - 23.5 °F 24% 30.16 in 10.0 mi WNW 18.4 mph 24.2 mph N/A   Unknown
1:20 PM 63.0 °F - 22.8 °F 22% 30.15 in 10.0 mi West 15.0 mph 27.6 mph N/A   Unknown
1:35 PM 63.9 °F - 22.8 °F 21% 30.15 in 10.0 mi West 18.4 mph 27.6 mph N/A   Unknown
1:55 PM 62.2 °F - 22.5 °F 22% 30.15 in 10.0 mi West 12.7 mph 25.3 mph N/A   Unknown
2:15 PM 63.0 °F - 18.7 °F 18% 30.14 in 10.0 mi NNW 4.6 mph - N/A   Unknown
2:35 PM 66.6 °F - 20.3 °F 17% 30.14 in 10.0 mi WSW 20.7 mph 27.6 mph N/A   Unknown
2:55 PM 66.0 °F - 20.3 °F 17% 30.13 in 10.0 mi SW 16.1 mph 23.0 mph N/A   Unknown
3:15 PM 66.4 °F - 20.5 °F 17% 30.12 in 10.0 mi WSW 17.3 mph 24.2 mph N/A   Unknown
3:35 PM 66.4 °F - 18.7 °F 16% 30.12 in 10.0 mi West 8.1 mph 27.6 mph N/A   Unknown
3:55 PM 68.0 °F - 19.0 °F 15% 30.12 in 10.0 mi SW 16.1 mph 27.6 mph N/A   Unknown
4:15 PM 66.4 °F - 18.3 °F 16% 30.12 in 10.0 mi WNW 21.9 mph 29.9 mph N/A   Unknown
4:35 PM 66.2 °F - 18.3 °F 16% 30.12 in 10.0 mi West 19.6 mph 27.6 mph N/A   Unknown
4:55 PM 66.0 °F - 17.6 °F 16% 30.12 in 10.0 mi West 18.4 mph 26.5 mph N/A   Unknown
5:15 PM 65.3 °F - 17.1 °F 16% 30.12 in 10.0 mi West 17.3 mph 32.2 mph N/A   Unknown
5:35 PM 65.3 °F - 19.0 °F 17% 30.12 in 10.0 mi WSW 17.3 mph 35.7 mph N/A   Unknown
5:55 PM 64.4 °F - 17.1 °F 16% 30.13 in 10.0 mi WSW 20.7 mph 34.5 mph N/A   Unknown
6:15 PM 63.9 °F - 16.9 °F 16% 30.14 in 10.0 mi SW 18.4 mph 26.5 mph N/A   Unknown
6:35 PM 63.5 °F - 18.5 °F 18% 30.14 in 10.0 mi WSW 10.4 mph 27.6 mph N/A   Unknown
6:55 PM 63.1 °F - 14.0 °F 15% 30.14 in 10.0 mi WSW 16.1 mph 25.3 mph N/A   Unknown
7:15 PM 62.4 °F - 14.5 °F 16% 30.14 in 10.0 mi WSW 13.8 mph 21.9 mph N/A   Unknown
7:35 PM 61.0 °F - 16.0 °F 17% 30.14 in 10.0 mi SW 9.2 mph 18.4 mph N/A   Unknown
7:55 PM 58.1 °F - 15.6 °F 19% 30.14 in 10.0 mi SW 10.4 mph - N/A   Unknown
8:15 PM 53.8 °F - 19.2 °F 26% 30.14 in 10.0 mi SW 9.2 mph - N/A   Unknown
8:35 PM 48.4 °F - 21.6 °F 35% 30.15 in 10.0 mi SW 8.1 mph - N/A   Unknown
8:55 PM 48.0 °F - 22.3 °F 36% 30.15 in 10.0 mi South 3.5 mph - N/A   Unknown
9:15 PM 46.0 °F - 24.1 °F 42% 30.15 in 10.0 mi Calm Calm - N/A   Unknown
9:35 PM 46.0 °F - 22.8 °F 40% 30.16 in 10.0 mi Calm Calm - N/A   Unknown
9:55 PM 43.9 °F - 25.2 °F 48% 30.18 in 10.0 mi Calm Calm - N/A   Unknown
10:15 PM 41.0 °F - 27.0 °F 57% 30.18 in 10.0 mi Calm Calm - N/A   Unknown
10:35 PM 42.8 °F - 24.4 °F 48% 30.18 in 10.0 mi Calm Calm - N/A   Unknown
10:55 PM 39.9 °F - 25.0 °F 55% 30.18 in 10.0 mi Calm Calm - N/A   Unknown
11:15 PM 39.7 °F - 24.4 °F 54% 30.18 in 10.0 mi Calm Calm - N/A   Unknown
11:35 PM 37.0 °F - 26.8 °F 66% 30.18 in 10.0 mi Calm Calm - N/A   Unknown
11:55 PM 36.9 °F - 25.7 °F 64% 30.18 in 10.0 mi Calm Calm - N/A   Unknown